{"data":{"norad_id":67869,"intl_designator":"2026-034V","name":"STARLINK-36779","alt_names":[],"object_type":"PAYLOAD","status":"ACTIVE","operator":null,"country":"US","launch_date":"2026-02-20","launch_site_code":"AFETR","launch_vehicle":null,"mission":null,"orbit_class":"UNKNOWN","rcs_meters":null,"size_class":null,"mass_kg":null,"dimensions":null,"purposes":["comms"],"wikipedia_slug":null,"has_3d_model":false,"image_url":null,"decayed_at":null,"tle_current":{"epoch":"2026-09-19T19:52:32.477952Z","epoch_age_seconds":121349,"freshness":"FRESH","line1":"1 67869U 26034V   26262.82815368  .00024973  00000+0  74753-3 0  9993","line2":"2 67869  53.1591  17.2049 0001186  85.0491 275.0647 15.34410462 33825","mean_motion":15.34410462,"eccentricity":0.0001186,"inclination_deg":53.1591,"raan_deg":17.2049,"arg_perigee_deg":85.0491,"mean_anomaly_deg":275.0647,"bstar":0.00074753,"rev_number":3382,"period_min":93.847118203499,"perigee_km":461.86082515041,"apogee_km":463.48346507963,"semimajor_km":6840.809145115,"source":"CELESTRAK","updated_at":"2026-09-20T09:00:43.692470Z"}}}